EW6020 Weather Reports


time (UTC)temp
C
wind
direction
speed
KPH
gust
KPH
rain 1hr
cm
rain 24hr
cm
rain mn
cm
humidity
%
barometer
mb
20260506133010 -17 0.0 0.0 0.00 0.00 0.00 1017.7
20260506131508 -17 0.0 0.0 0.00 0.00 0.00 1017.7
20260506130001 -17 0.0 0.0 0.00 0.00 0.00 1017.5
20260506124558 -17 0.0 0.0 0.00 0.00 0.00 1017.2
20260506123110 11 224 8.0 11.3 0.00 0.00 0.00 91 1017.1
20260506121605 11 179 9.7 12.9 0.00 0.00 0.00 91 1017.1
20260506120048 12 179 4.8 6.4 0.00 0.00 0.00 91 1017.2
20260506114545 12 152 4.8 6.4 0.00 0.00 0.00 91 1017.1
20260506113042 12 153 0.0 1.6 0.00 0.00 0.00 90 1017.0
20260506111542 12 153 0.0 0.0 0.00 0.00 0.00 90 1016.9
20260506110042 12 153 0.0 0.0 0.00 0.00 0.00 90 1016.7
20260506104537 12 153 0.0 0.0 0.00 0.00 0.00 90 1016.5
20260506103035 12 153 0.0 0.0 0.00 0.00 0.00 89 1016.3
20260506101534 12 153 0.0 3.2 0.00 0.00 0.00 90 1016.1
20260506100036 12 153 1.6 3.2 0.00 0.00 0.00 90 1016.0
20260506094530 12 153 0.0 0.0 0.00 0.00 0.00 90 1015.9
20260506093029 12 153 0.0 1.6 0.00 0.00 0.00 89 1015.8
20260506091527 12 153 0.0 0.0 0.00 0.00 0.00 89 1015.8
20260506090027 12 153 0.0 1.6 0.00 0.00 0.00 89 1015.8
20260506084534 12 153 0.0 3.2 0.00 0.00 0.00 89 1015.7
20260506083030 12 153 0.0 3.2 0.00 0.00 0.00 89 1015.6
20260506081522 12 153 3.2 4.8 0.00 0.00 0.00 88 1015.7
20260506073016 13 149 3.2 4.8 0.00 0.00 0.00 87 1015.4
20260506071513 13 179 3.2 8.0 0.00 0.00 0.00 87 1015.2
20260506061508 14 179 0.0 1.6 0.00 0.00 0.00 85 1015.1
20260506044508 14 179 0.0 4.8 0.00 0.00 0.00 85 1014.6
20260506043002 15 180 0.0 3.2 0.00 0.00 0.00 82 1014.4
20260506041502 15 179 3.2 4.8 0.00 0.00 0.00 81 1014.2
20260506040002 15 179 1.6 3.2 0.00 0.00 0.00 81 1013.9
20260506034503 16 179 0.0 1.6 0.00 0.00 0.00 80 1013.8
20260506033000 16 179 0.0 3.2 0.00 0.00 0.00 80 1013.6
20260506031603 16 179 1.6 1.6 0.00 0.00 0.00 78 1013.5
20260506030100 16 179 1.6 3.2 0.00 0.00 0.00 77 1013.3
20260506024608 17 180 3.2 6.4 0.00 0.00 0.00 75 1013.2
20260506023111 17 179 4.8 9.7 0.00 0.00 0.00 73 1013.2
20260506021600 19 179 1.6 4.8 0.00 0.00 0.00 68 1013.0
20260506020058 18 176 4.8 8.0 0.00 0.00 0.00 69 1013.0
20260506014556 19 176 0.0 4.8 0.00 0.00 0.00 67 1013.0
20260506013057 18 178 1.6 6.4 0.00 0.00 0.00 68 1013.1
20260506011554 18 177 1.6 12.9 0.00 0.00 0.00 71 1013.2
20260506010052 17 179 1.6 6.4 0.00 0.00 0.00 72 1013.2
20260506004557 17 145 4.8 8.0 0.00 0.00 0.00 71 1013.2
20260506003052 17 179 4.8 14.5 0.00 0.00 0.00 71 1013.2
20260506001555 18 154 4.8 9.7 0.00 0.00 0.00 69 1013.2
20260506000056 17 178 0.0 14.5 0.00 0.00 0.00 72 1013.3
20260505234547 18 147 1.6 12.9 0.00 0.00 0.00 70 1013.5
20260505233048 18 178 1.6 9.7 0.00 0.00 0.00 70 1013.6
20260505231545 17 178 1.6 14.5 0.00 0.00 0.00 72 1013.7
20260505230108 16 164 4.8 16.1 0.00 0.00 0.00 73 1013.9
20260505224541 17 178 8.0 17.7 0.00 0.00 0.00 74 1014.0
20260505223043 16 178 4.8 14.5 0.00 0.00 0.00 75 1014.2
20260505221545 16 169 4.8 16.1 0.00 0.00 0.00 72 1014.1
20260505220051 17 179 1.6 9.7 0.00 0.00 0.00 71 1014.2
20260505214538 16 178 1.6 9.7 0.00 0.00 0.00 75 1014.4
20260505213037 17 179 3.2 8.0 0.00 0.00 0.00 72 1014.4
20260505211536 16 156 6.4 14.5 0.00 0.00 0.00 74 1014.4
20260505210036 16 177 0.0 4.8 0.00 0.00 0.00 74 1014.4
20260505204531 15 151 1.6 8.0 0.00 0.00 0.00 75 1014.6
20260505203030 15 179 3.2 9.7 0.00 0.00 0.00 78 1014.8
20260505201529 15 179 3.2 9.7 0.00 0.00 0.00 77 1014.8
20260505200036 15 154 1.6 6.4 0.00 0.00 0.00 78 1014.9
20260505194527 15 178 1.6 6.4 0.00 0.00 0.00 78 1014.9
20260505193027 15 177 0.0 4.8 0.00 0.00 0.00 77 1014.9
20260505191529 15 178 0.0 1.6 0.00 0.00 0.00 76 1014.9
20260505190024 15 176 0.0 1.6 0.00 0.00 0.00 79 1014.9
20260505184522 13 179 1.6 8.0 0.00 0.00 0.00 82 1014.9
20260505183024 13 178 0.0 9.7 0.00 0.00 0.00 81 1014.8
20260505181522 14 177 0.0 3.2 0.00 0.00 0.00 80 1014.8
20260505180015 13 178 0.0 4.8 0.00 0.00 0.00 81 1014.7
20260505174514 13 178 0.0 4.8 0.00 0.00 0.00 82 1014.8
20260505173014 13 178 0.0 4.8 0.00 0.00 0.00 84 1014.7
20260505171510 13 179 0.0 1.6 0.00 0.00 0.00 84 1014.7
20260505170006 12 148 0.0 3.2 0.00 0.00 0.00 88 1014.6
20260505164502 12 149 0.0 4.8 0.00 0.00 0.00 89 1014.4
20260505163104 12 179 0.0 1.6 0.00 0.00 0.00 90 1014.4
20260505161609 11 177 0.0 3.2 0.00 0.00 0.00 90 1014.4
20260505153053 11 149 3.2 4.8 0.00 0.00 0.00 91 1014.2
20260505151552 11 149 1.6 6.4 0.00 0.00 0.00 92 1014.2